User: anonymous
Location: Caltech
(34.1382°N, 118.1253°W)
Time: 15:48:27
(UTC-07:00)
Language:

Cosmos 1939 Rocket - Orbit

View from above orbital plane
View from above orbital plane
View from above satellite
View from above satellite

Ground track
Ground track

The orbit data is extracted from the following two-line orbital elements,

1 19046U 88032B   14293.11233733  .00002798  00000-0  22688-3 0   258
2 19046 097.6388 345.3980 0038771 039.5156 320.8883 14.99904201426924
Epoch (UTC): 20 October 2014 02:41:45
Eccentricity: 0.0038771
inclination: 97.6388°
perigee height: 540 km
apogee height: 594 km
right ascension of ascending node: 345.3980°
argument of perigee: 39.5156°
revolutions per day: 14.99904201
mean anomaly at epoch: 320.8883°
orbit number at epoch: 42692

The dashed part of the orbit path shows where the satellite is in the earth's shadow,  

DLR